Tracking 19908 objects as of 19-Oct-2019
HD Live streaming from Space Station
objects crossing your sky now

DELTA 1 R/B(2)

Track DELTA 1 R/B(2) now!


NORAD ID: 15206
Int'l Code: 1984-088F
Perigee: 573.4 km
Apogee: 48,862.1 km
Inclination: 28.0 °
Period: 909.2 minutes
Semi major axis: 31088 km
RCS: 2.318 m2 (large)
Launch date: August 16, 1984
Source: United States (US)
Launch site: AIR FORCE EASTERN TEST RANGE (AFETR)

Note: This is a ROCKET BODY
aabbcc
Your satellite tracking list
Your tracking list is empty




NASA's NSSDC Master Catalog

Two Line Element Set (TLE):
1 15206U 84088F   19288.16496350 -.00000144  00000-0  24892-2 0  9991
2 15206  28.0084 314.8659 7766270  96.8317 346.9312  1.58379422202073
Source of the keplerian elements: AFSPC